Regional Weather Roundup
Issued by NWS

Home | Current Version | Previous Version | Text Only | Print | Product List | Glossary On
Versions: 1 2 3 4 5 6 7 8 9 10 11 12 13 14 15 16 17 18 19 20 21 22 23 24 25 26 27 28 29 30 31 32 33 34 35 36 37 38 39 40 41 42 43 44 45 46 47 48 49 50
856
ASUS42 KFFC 180710
RWRGA
WEATHER ROUNDUP FOR GEORGIA
NATIONAL WEATHER SERVICE PEACHTREE CITY GA
200 AM EST MON DEC 18 2017

NOTE: "FAIR" INDICATES FEW OR NO CLOUDS BELOW 12,000 FEET WITH NO
SIGNIFICANT WEATHER AND/OR OBSTRUCTIONS TO VISIBILITY.

* = USE WITH CAUTION. THE STATIONS MARKED WITH AN ASTERISK MAY NOT
REPORT WEATHER SUCH AS PRECIPITATION, FOG, OR THUNDER AND ARE NOT
QUALITY CONTROLLED BY NWS.

THE REMARK "TC" DENOTES TEMPERATURE READING IN DEGREES CELSIUS.

GAZ001>058-180800-
NORTH GEORGIA

CITY           SKY/WX    TMP DP  RH WIND       PRES   REMARKS
ATLANTA        CLOUDY    47  46  97 CALM      30.17R FOG
ATHENS         CLOUDY    47  44  90 CALM      30.17S
CHAMBLEE       CLOUDY    46  44  93 CALM      30.17R FOG
PEACHTREE CITY CLOUDY    48  46  93 CALM      30.17S FOG
ROME           FOG       44  44 100 CALM      30.17S VSB 1/2
WEST ATLANTA   CLOUDY    47  47 100 CALM      30.17S FOG
GAINESVILLE    CLOUDY    46  46 100 CALM      30.16F FOG
CARTERSVILLE   CLOUDY    45  45 100 CALM      30.18S


CITY           SKY/WX    TMP DP  RH WIND       PRES   REMARKS
DALTON*        CLOUDY    43  43 100 CALM      30.19R FOG
LAWRENCEVILLE* CLOUDY    45  44  97 CALM      30.16S FOG
MARIETTA       CLOUDY    46  45  96 CALM      30.16R FOG
KENNESAW*      CLOUDY    45  45 100 CALM      30.18R FOG
CANTON*        FOG       45  45 100 CALM      30.17S VSB 1/2
$$

GAZ059>098-102>109-180800-
CENTRAL GEORGIA

CITY           SKY/WX    TMP DP  RH WIND       PRES   REMARKS
AUGUSTA-BUSH   CLOUDY    54  44  69 CALM      30.16S
AUGUSTA-DANIEL CLOUDY    55  42  61 CALM      30.17R
COLUMBUS       CLOUDY    57  56  96 CALM      30.15S FOG
MACON          CLOUDY    56  47  71 CALM      30.17S
ROBINS AFB     CLOUDY    56  49  79 CALM      30.16S


CITY           SKY/WX    TMP DP  RH WIND       PRES   REMARKS
LAGRANGE*      FOG       49  49  98 CALM      30.16F VSB 1/2
SYLVANIA*      CLOUDY    57  52  84 CALM      30.18S
MILLEDGEVILLE* CLOUDY    54  46  76 CALM      30.18R
$$

GAZ099>101-110>166-180800-
SOUTH GEORGIA

CITY           SKY/WX    TMP DP  RH WIND       PRES   REMARKS
SAVANNAH       CLOUDY    52  50  93 CALM      30.19S
VALDOSTA       MOCLDY    63  61  93 CALM      30.18S
ALMA           PTCLDY    53  52  96 CALM      30.18R FOG
ST SIMONS      CLOUDY    58  57  97 SW3       30.18F
FT STEWART       N/A    N/A N/A N/A CALM        N/A
ALBANY         CLOUDY    64  62  93 S5        30.17F
HUNTER AFB     PTCLDY    53  50  91 CALM        N/A
MOODY AFB      MOCLDY    63  61  92 SW6       30.17S
BRUNSWICK        N/A     55  54  94 CALM      30.19S FOG


CITY           SKY/WX    TMP DP  RH WIND       PRES   REMARKS
BAINBRIDGE*    CLOUDY    64  64 100 CALM      30.15F
MOULTRIE*        N/A     63  61  94 CALM      30.18F
VIDALIA*       CLOUDY    55  55 100 CALM      30.18R
WAYCROSS*      PTCLDY    56  53  91 CALM      30.18R FOG
DOUGLAS*       PTCLDY    55  55 100 CALM      30.19S
$$




USA.gov is the U.S. government's official web portal to all federal, state and local government web resources and services.